Weather History for Klamath Falls, OR

Change the Weather History Date:

Tuesday, March 27, 2012

  Actual Average Record
Temperature  
Mean Temperature 39 °F 40 °F  
Max Temperature 43 °F 52 °F 70 °F (1986)
Min Temperature 35 °F 27 °F 17 °F (1959)
Degree Days  
Heating Degree Days 26 26  
Month to date heating degree days 778 722  
Since 1 July heating degree days 5456 5563  
Cooling Degree Days 0 0  
Month to date cooling degree days 0 0  
Year to date cooling degree days 0 0  
Moisture  
Dew Point 30 °F    
Average Humidity 73    
Maximum Humidity 89    
Minimum Humidity 62    
Precipitation  
Precipitation 0.03 in 0.05 in 0.29 in (1934)
Month to date precipitation 0.96 1.08  
Year to date precipitation 2.90 4.85  
Sea Level Pressure  
Sea Level Pressure 29.75 in    
Wind  
Wind Speed 19 mph (SSE)    
Max Wind Speed 30 mph    
Max Gust Speed 37 mph    
Visibility 10 miles    
Events      
T = Trace of Precipitation, MM = Missing Value Source: NWS Daily Summary

Daily Weather History Graph

Daily Weather History Graph

Search for Another Location

Airport:

Trip Planner

Search our weather history database for the weather conditions in past years. The results will help you decide how hot, cold, wet, or windy it might be!

Date:

Astronomy

Mar. 27, 2012 Rise Set
Actual Time 6:57 AM PDT 7:27 PM PDT
Civil Twilight 6:29 AM PDT 7:55 PM PDT
Nautical Twilight 5:55 AM PDT 8:29 PM PDT
Astronomical Twilight 5:21 AM PDT 9:03 PM PDT
Moon 9:26 AM PDT (3/27) No Moon Set
Length of Visible Light 13h 26m
Length of Day
12h 30m
Waxing Crescent, 23% of the Moon is Illuminated
Mar 27
Waxing Crescent
Mar 30
First Quarter
Apr 6
Full
Apr 13
Last Quarter
Apr 21
New

Hourly Weather History & Observations

Time (PDT) Temp. Windchill Dew Point Humidity Pressure Visibility Wind Dir Wind Speed Gust Speed Precip Events Conditions
12:53 AM 37.0 °F 26.2 °F 26.1 °F 65% 29.82 in 10.0 mi South 21.9 mph 31.1 mph N/A   Overcast
1:53 AM 37.0 °F 27.4 °F 27.0 °F 67% 29.84 in 10.0 mi SSE 17.3 mph - N/A   Overcast
2:53 AM 36.0 °F 25.6 °F 28.0 °F 73% 29.83 in 10.0 mi SE 18.4 mph 24.2 mph N/A   Overcast
3:53 AM 37.0 °F 28.1 °F 28.9 °F 73% 29.82 in 10.0 mi South 15.0 mph - N/A   Overcast
4:53 AM 37.0 °F 27.0 °F 28.9 °F 73% 29.81 in 10.0 mi SSE 18.4 mph - N/A   Overcast
5:53 AM 36.0 °F 26.7 °F 28.0 °F 73% 29.81 in 10.0 mi SSE 15.0 mph 21.9 mph N/A   Overcast
6:00 AM 37.4 °F 29.3 °F 28.4 °F 70% 29.80 in 10.0 mi SSE 12.7 mph 21.9 mph N/A   Overcast
6:53 AM 37.9 °F 28.9 °F 28.0 °F 68% 29.79 in 10.0 mi SSE 16.1 mph 24.2 mph N/A   Overcast
7:53 AM 37.0 °F 28.1 °F 28.9 °F 73% 29.80 in 10.0 mi SSE 15.0 mph - N/A   Overcast
8:53 AM 39.0 °F 30.3 °F 28.9 °F 67% 29.79 in 10.0 mi SSE 16.1 mph - N/A   Overcast
9:53 AM 39.9 °F 30.0 °F 28.9 °F 65% 29.78 in 10.0 mi SSE 21.9 mph 28.8 mph N/A   Overcast
10:53 AM 41.0 °F 31.1 °F 30.9 °F 67% 29.76 in 10.0 mi SE 23.0 mph 28.8 mph N/A   Overcast
11:53 AM 42.1 °F 32.6 °F 32.0 °F 67% 29.77 in 10.0 mi SE 23.0 mph 32.2 mph N/A   Overcast
12:53 PM 42.1 °F 32.1 °F 32.0 °F 67% 29.73 in 10.0 mi SSE 25.3 mph 34.5 mph N/A   Overcast
1:53 PM 42.1 °F 32.1 °F 34.0 °F 73% 29.71 in 10.0 mi SSE 25.3 mph 33.4 mph N/A   Mostly Cloudy
2:53 PM 42.1 °F 33.1 °F 33.1 °F 70% 29.70 in 10.0 mi South 20.7 mph 31.1 mph N/A   Mostly Cloudy
3:53 PM 42.1 °F 32.3 °F 30.0 °F 62% 29.70 in 10.0 mi South 24.2 mph 31.1 mph N/A   Overcast
4:53 PM 42.1 °F 34.5 °F 30.9 °F 65% 29.68 in 10.0 mi South 15.0 mph 27.6 mph N/A   Overcast
5:53 PM 37.9 °F 27.6 °F 34.0 °F 86% 29.68 in 10.0 mi SE 20.7 mph 28.8 mph N/A   Overcast
6:53 PM 37.0 °F 25.9 °F 33.1 °F 86% 29.68 in 10.0 mi SSE 23.0 mph - N/A   Overcast
7:53 PM 37.9 °F 29.2 °F 32.0 °F 79% 29.69 in 10.0 mi SSE 15.0 mph - N/A   Overcast
8:53 PM 37.9 °F 26.8 °F 30.9 °F 76% 29.70 in 7.0 mi South 24.2 mph 31.1 mph N/A   Overcast
9:53 PM 37.0 °F 27.0 °F 30.9 °F 79% 29.70 in 7.0 mi SSE 18.4 mph - N/A   Overcast
10:53 PM 36.0 °F 29.0 °F 32.0 °F 86% 29.68 in 10.0 mi SSE 9.2 mph - N/A   Mostly Cloudy
11:53 PM 37.0 °F 28.5 °F 33.1 °F 86% 29.68 in 10.0 mi SSE 13.8 mph - N/A   Overcast